Regional Weather Roundup
Issued by NWS

Home | Current Version | Previous Version | Text Only | Print | Product List | Glossary On
Versions: 1 2 3 4 5 6 7 8 9 10 11 12 13 14 15 16 17 18 19 20 21 22 23 24 25 26 27 28 29 30 31 32 33 34 35 36 37 38 39 40 41 42 43 44 45 46 47 48 49 50
000
ASUS43 KMKX 271911
RWRWI

WISCONSIN REGIONAL WEATHER ROUNDUP
NATIONAL WEATHER SERVICE MILWAUKEE/SULLIVAN WI
200 PM CDT WED AUG 27 2014

NOTE: "FAIR" INDICATES FEW OR NO CLOUDS BELOW 12,000 FEET WITH NO
SIGNIFICANT WEATHER AND/OR OBSTRUCTIONS TO VISIBILITY.

WIZ001-002-006>008-014>016-023>028-272000-
NORTHWEST WISCONSIN

CITY           SKY/WX    TMP DP  RH WIND       PRES   REMARKS
SUPERIOR ARPT  MOSUNNY   69  50  50 CALM      30.19F
ASHLAND        MOSUNNY   66  48  52 VRB3      30.22F
HAYWARD        MOSUNNY   69  49  48 MISG      30.22F
SIREN          MOSUNNY   67  51  56 CALM      30.22F
RICE LAKE      MOSUNNY   69  52  53 W3        30.23F
LADYSMITH      MOSUNNY   69  50  51 CALM      30.23S
EAU CLAIRE     SUNNY     74  54  49 N5        30.19F
MENOMONIE      PTCLDY    72  53  52 NW5       30.20F
NEW RICHMOND   SUNNY     71  54  54 NE5       30.21F
OSCEOLA        MOSUNNY   71  53  54 CALM      30.23F
$$

WIZ003>005-009-010-017-018-272000-
NORTH CENTRAL WISCONSIN

CITY           SKY/WX    TMP DP  RH WIND       PRES   REMARKS
WOODRUFF       SUNNY     66  48  51 NW7       30.21F
RHINELANDER    MOSUNNY   67  49  52 N6        30.21F
EAGLE RIVER    MOSUNNY   66  46  49 W7        30.20F
LAND O LAKES   PTSUNNY   67  47  48 NW8       30.21F
PHILLIPS       SUNNY     66  49  53 W5        30.21F
TOMAHAWK       MOSUNNY   67  48  49 NW5       30.21S
MEDFORD        SUNNY     68  51  54 NW7       30.21S
MERRILL        MOSUNNY   69  53  56 W7        30.19F
$$

WIZ029-030-035-036-043>047-272000-
CENTRAL WISCONSIN

CITY           SKY/WX    TMP DP  RH WIND       PRES   REMARKS
WAUSAU         SUNNY     71  54  54 NW8       30.18F
MOSINEE        PTSUNNY   70  57  64 NW8       30.20F
MARSHFIELD     MOSUNNY   72  56  57 W6        30.19F
STEVENS POINT  PTSUNNY   69  55  59 W5        30.19F
WAUPACA        MOSUNNY   75  54  46 NW5       30.18S
WAUTOMA        SUNNY     76  55  47 CALM      30.18S
WISC RAPIDS    MOSUNNY   74  55  51 W8        30.20F
CAMP DOUGLAS   PTSUNNY   75  57  53 VRB1      30.18F
$$

WIZ011>013-019>022-031-037>040-048>050-272000-
NORTHEAST WISCONSIN

CITY           SKY/WX    TMP DP  RH WIND       PRES   REMARKS
ANTIGO         MOSUNNY   68  53  60 NW7       30.20F
STURGEON BAY   CLOUDY    66  54  63 NW6       30.19F
GREEN BAY      PTSUNNY   70  56  61 N8        30.18F
MANITOWOC      CLOUDY    69  56  62 SE5       30.18F
APPLETON       PTSUNNY   70  54  56 VRB6      30.18F
CLINTONVILLE   CLOUDY    70  54  56 NW3       30.18S
OSHKOSH        MOSUNNY   73  56  54 VRB5      30.17F
$$

WIZ032>034-041-042-053>061-272000-
SOUTHWEST WISCONSIN

CITY           SKY/WX    TMP DP  RH WIND       PRES   REMARKS
LA CROSSE      PTSUNNY   77  57  50 CALM      30.18S
SPARTA         MOSUNNY   74  53  47 NW5       30.19S
VIROQUA        CLOUDY    72  56  56 CALM      30.20S
BOSCOBEL       CLOUDY    77  56  48 E3        30.19S
PRAIRIE DU CHI CLOUDY    74  56  53 SW3       30.18S
PLATTEVILLE    FAIR      75  58  54 CALM      30.20R
$$

WIZ056-057-062-063-064-067-068-272000-
SOUTH CENTRAL WISCONSIN

CITY           SKY/WX    TMP DP  RH WIND       PRES   REMARKS
BARABOO/DELLS  PTSUNNY   74  53  48 S3        30.18S
LONE ROCK      CLOUDY    80  58  46 CALM      30.18S HX  80
WATERTOWN      PTSUNNY   74  58  58 NW5       30.17S
MADISON        PTSUNNY   76  57  51 CALM      30.18S
MIDDLETON      FAIR      75  55  49 NE3       30.19S
MONROE         MOSUNNY   75  57  53 CALM      30.18R
JANESVILLE     SUNNY     79  55  44 CALM      30.15F
$$

WIZ051-052-058>065-066-070>072-272000-
SOUTHEAST WISCONSIN

CITY           SKY/WX    TMP DP  RH WIND       PRES   REMARKS
MILWAUKEE      PTSUNNY   71  62  73 NE9       30.17S
WAUKESHA       PTSUNNY   72  61  68 E5        30.18S
MILWAUKEE/TIMM MOSUNNY   72  57  60 NE7       30.18S
RACINE         SUNNY     74  61  63 NE10      30.18F
BURLINGTON     MOSUNNY   74  56  52 CALM      30.16S
KENOSHA        MOSUNNY   76  65  68 NE7       30.17S
FOND DU LAC    MOSUNNY   73  56  54 N9        30.18S
SHEBOYGAN      PTSUNNY   72  56  57 E6        30.18S
WEST BEND      PTSUNNY   72  55  56 CALM      30.17S
JUNEAU         PTSUNNY   72  55  55 CALM      30.19S
$$

LSZ147-162-272000-
LAKE SUPERIOR

STATION/POSITION TIME  TEMP    WIND        PRES    WAVE
                       AIR SEA DIR/SP/G            HT/PER
                 (UTC) (F)     (DEG/KT/KT) (MB)    (FT/S)
W MID LAKE BUOY  1850   57 56  250/  8/  8 1022.9F   1/ 3
DEVILS ISLAND    1900   62     230/  5/  6 1023.2F
PORT WING        1840   65     270/  5/  8 1023.4F
SAXON HARBOR     1800   63      20/  2/  5 1023.7S
$$

LMZ867-665-643>646-272000-
LAKE MICHIGAN

STATION/POSITION TIME  TEMP    WIND        PRES    WAVE
                       AIR SEA DIR/SP/G            HT/PER
                 (UTC) (F)     (DEG/KT/KT) (MB)    (FT/S)
N MID LAKE BUOY  1850   62 67  260/  4/  6 1022.3S   0
NORTHPORT PIER   1800   64     310/  6/  8 1022.0F
SISTER BAY       1811   72        CALM       N/A
KEWAUNEE LAKESHO 1800   67     120/  4/  5 1021.5R
SHEBOYGAN LAKESH 1900   65 67   80/  7/  8 1022.1F
ATWATER BUOY     1800   68      30/ 10/ 12 1022.9F
MILWAUKEE LAKESH 1800   67      30/ 10/ 12   N/A
S MID LAKE BUOY  1850   68 70   30/  6/  6 1021.5F   0
KENOSHA   LAKESH 1900   69      50/ 10/ 11 1021.0S
$$

TC  - TEMPERATURE IN CELSIUS
VSB - VISIBILITY IN STATUTE MILES
WCI - WIND CHILL INDEX
HX  - HEAT INDEX




USA.gov is the U.S. government's official web portal to all federal, state and local government web resources and services.